www.pogodaiklimat.ru

Погода и климат >> Архив погоды >> Россия >> Магаданская область >> Мыс Братьев


ПОГОДА на Мысе Братьев

  • Прогноз погоды на Мысе Братьев
  • Монитор погоды на Мысе Братьев
  • Климат города

АРХИВ ПОГОДЫ на Мысе Братьев

Время (UTC), дата Ветер
(напр.,м/с)
 
Видим.   Явления Облачность Т
(С)
Тd
(С)
f
(%)
Тe
(С)
Тes
(С)
Комфортность P
(гПа)
Po
(гПа)
Тmin
(С)
Tmax
(С)
R
(мм)
R24
(мм)
S
(см)
00 15.02 С 6
{10}
50 км 10/10 600 м
[Cb cap]
-11.8 -14.4 81 -21 -21 992.9 991.2 -12.0
03 15.02 С 8-10
{10}
50 км 10/10 600 м
[Cb cap]
-11.8 -13.7 86 -22 -22 993.7 992.0
06 15.02 С 8-10
{12}
1000 м слабый ливневой снег 10/10 600 м
[Cb cap]
-11.2 -12.9 87 -21 -21 994.9 993.2
09 15.02 С 5
{12}
4000 м слабый ливневой снег {метель} 10/10 600 м
[Cb cap]
-10.3 -12.4 85 -18 -18 997.1 995.4 -9.4 2
12 15.02 С 7
{10}
4000 м слабый ливневой снег {метель} 10/10 600 м
[Cb cap]
-10.8 -13.0 84 -20 -20 998.8 997.1
15 15.02 С 8-10
{11}
4000 м слабый ливневой снег 10/10 600 м
[Cb cap]
-11.1 -13.0 86 -21 -21 999.8 998.1
18 15.02 С 7
{13}
4000 м слабый ливневой снег 10/10 600 м
[Cb cap]
-11.7 -14.4 80 -21 -21 1001.0 999.3
21 15.02 Ю 7
{11}
50 км {ливн. осадки} 10/6 600 м
[Cb cap As trans]
-12.7 -16.1 76 -22 -22 1001.5 999.8 -12.7 2 35
00 16.02 С 7
{10}
50 км {ливн. осадки} 6/6 1000 м
[Sc]
-12.2 -16.7 69 -22 -21 1002.1 1000.4 -12.9
03 16.02 С 8-10
{11}
50 км 4/3 1000 м
[Sc Ac trans]
-12.2 -17.2 66 -22 -22 1001.6 999.9
06 16.02 С 7
{11}
50 км ясно -12.1 -17.4 65 -22 -22 1001.1 999.4
09 16.02 СВ 10-13
{13}
50 км ясно -14.0 -19.8 61 -26 -26 1000.6 998.9 -11.1
12 16.02 С 5
{13}
50 км ясно -15.4 -20.9 63 -24 -24 1000.6 998.9
15 16.02 СЗ 4 50 км ясно -15.4 -21.5 59 -23 -23 999.7 998.0
18 16.02 С 3 50 км ясно -16.2 -22.7 57 -23 -23 999.2 997.5
21 16.02 С 4 50 км ясно -17.8 -23.0 64 -26 -26 999.3 997.6 -17.9 35
00 17.02 С 3 50 км ясно -13.5 -20.0 58 -20 -18 1000.3 998.6
03 17.02 С 4 50 км ясно -12.1 -18.0 61 -19 -18 1000.4 998.7
06 17.02 С 3 50 км ясно -12.7 -19.3 58 -19 -19 1001.5 999.8
09 17.02 С 2 50 км ясно -13.3 -22.7 45 -18 -18 1001.9 1000.2 -11.6
12 17.02 С 2 50 км ясно -14.8 -20.3 63 -20 -20 1002.5 1000.8
15 17.02 С 6 50 км ясно -16.7 -23.9 54 -27 -27 1002.4 1000.7
18 17.02 штиль 0 50 км ясно -15.6 -22.8 54 -16 -16 1002.6 1000.9
21 17.02 С 1 50 км ясно -15.4 -21.4 60 -18 -18 1003.0 1001.3 -18.1 35
00 18.02 штиль 0 50 км ясно -12.3 -19.1 57 -12 -10 1002.2 1000.5
03 18.02 С 2 50 км 4/3 1000 м
[Sc Ac lent]
-10.2 -16.9 58 -15 -13 1001.0 999.4
06 18.02 С 8
{10}
50 км 4/3 1000 м
[Sc Ac lent]
-11.1 -17.4 60 -21 -21 1000.1 998.4
09 18.02 С 8-10
{10}
н/о н/о -11.3 -15.7 70 -21 -21 1000.0 998.3 -10.2
12 18.02 СЗ 2
{10}
50 км ясно -11.3 -14.8 75 -16 -16 999.1 997.4
15 18.02 СЗ 4 50 км ясно -11.7 -14.9 77 -19 -19 998.8 997.1
18 18.02 С 9-12
{12}
50 км ясно -10.5 -15.0 69 -21 -21 998.3 996.7
21 18.02 С 5
{12}
50 км 6/0
[Ac trans Ci fib]
-11.1 -13.9 80 -19 -19 998.3 996.6 -12.8 35
00 19.02 С 5 50 км 9/0
[Ci]
-9.3 -13.7 70 -17 -16 998.4 996.7
03 19.02 С 6 50 км 9/0
[Ci fib]
-8.8 -10.7 86 -17 -17 997.4 995.7
06 19.02 С 6 50 км 9/0
[Ac trans]
-9.3 -13.5 71 -18 -18 997.4 995.7
09 19.02 СВ 5
{11}
50 км 8/0
[Ac trans]
-10.8 -14.9 72 -19 -19 997.6 995.9 -7.9
12 19.02 С 5 50 км 6/0 1500 м
[Sc Ac trans]
-10.7 -15.5 68 -19 -19 997.3 995.7
15 19.02 С 5 50 км 10/10 1000 м
[Sc]
-10.7 -15.3 69 -19 -19 996.4 994.7
18 19.02 С 4 50 км ясно -10.7 -15.3 69 -18 -18 996.0 994.4
21 19.02 СЗ 1 50 км 8/6 1000 м
[Sc Ac As]
-10.1 -14.8 68 -12 -12 995.9 994.2 -11.7 35
00 20.02 С 3 50 км 6/6 1000 м
[Sc]
-9.9 -14.6 68 -16 -15 996.6 994.9
03 20.02 С 1 50 км 4/4 1000 м
[Sc]
-8.2 -13.7 65 -10 -9 996.8 995.1
06 20.02 штиль 0 50 км 6/3 1000 м
[Sc Ac lent Ci fib]
-9.1 -13.3 72 -10 -9 998.1 996.4
09 20.02 С 3 10 км слабый снег 10/10 1000 м
[Sc]
-10.6 -13.2 81 -17 -17 999.9 998.2 -8.0 0.3
12 20.02 В 2 50 км {снег} 10/10 1000 м
[Sc]
-10.0 -13.6 75 -14 -14 1001.9 1000.2
15 20.02 С 2 4000 м слабый снег 10/10 1000 м
[Sc]
-10.2 -12.3 85 -15 -15 1003.3 1001.6
18 20.02 СВ 2 н/о н/о -10.9 -13.6 80 -15 -15 1005.1 1003.4
21 20.02 СВ 3 10 км слабый снег 10/10 1000 м
[Sc]
-10.8 -13.9 78 -17 -17 1006.9 1005.2 -11.5 1 36
00 21.02 С 2 50 км {снег} 9/9 600 м
[Cb cap]
-10.3 -14.4 72 -15 -15 1008.8 1007.1
03 21.02 В 4 50 км 9/9 600 м
[Cb cap]
-9.8 -13.3 76 -17 -17 1009.9 1008.2
06 21.02 В 3 50 км 10/10 600 м
[Cb cap]
-9.8 -13.0 77 -16 -16 1010.2 1008.5
09 21.02 В 4 50 км 9/9 600 м
[Cb cap]
-9.7 -12.9 77 -17 -17 1011.2 1009.5 -9.5
12 21.02 С 6
{10}
50 км слабый ливневой снег 10/10 300 м
[Cb cap]
-10.4 -13.6 77 -19 -19 1011.8 1010.1
15 21.02 С 5
{11}
10 км слабый ливневой снег 10/10 600 м
[Cb cap]
-10.4 -12.6 84 -18 -18 1011.7 1010.0
18 21.02 С 6
{10}
50 км позёмок {ливн. осадки, метель} 10/10 600 м
[Cb cap]
-10.9 -13.7 80 -20 -20 1012.1 1010.4
21 21.02 С 6
{11}
50 км позёмок {метель} 10/10 600 м
[Cb cap]
-10.5 -14.2 74 -19 -19 1012.8 1011.1 -11.1 0.8 35

 

Местоположение метеостанции Мыс Братьев (Магаданская область, Россия): широта 59.10 долгота 153.30 высота над уровнем моря 13 м.

В архиве по умолчанию представлена погода на Мысе Братьев за последнюю неделю. Архивные данные за месяц целиком и за предыдущие месяцы, начиная с января 2011 года, Вы можете получить, выбрав интересующий диапазон дат из раскрывающегося списка и нажав кнопку "Ввод!".

Внимание! Время в таблицах - всемирное. Для получения местного времени необходимо прибавить поправку, которая на Мысе Братьев равна 11 ч.

Смотрите также архив погоды в соседних городах и на ближайших метеорологических станциях:

Погода в Брохово (Магаданская область, Россия) (80 км)
Погода на Мысе Алевина (Магаданская область, Россия) (119 км)
Погода в Оле (Магаданская область, Россия) (130 км)
Погода в Нагаева (Магаданская область, Россия) (154 км)
Погода в Магадане (Магаданская область, Россия) (156 км)
Погода в Палатке (Магаданская область, Россия) (175 км)
Погода в Армани (Магаданская область, Россия) (192 км)
Погода в Мадауне (Магаданская область, Россия) (221 км)
Погода в Шелихова (Магаданская область, Россия) (228 км)
Погода в Талае (Магаданская область, Россия) (232 км)

Пояснения к столбцам:

Ветер - указаны скорость ветра в м/с - средняя за 10 мин, порывы в срок и между сроками (в фигурных скобках) и направление, откуда дует ветер: С - северный, СВ - северо-восточный, В - восточный, ЮВ - юго-восточный, Ю - южный, ЮЗ - юго-западный, З - западный, СЗ - северо-западный.
Видимость - горизонтальная дальность видимости в метрах или километрах. При видимости от 1 до 10 км при отсутствии осадков обычно наблюдается дымка, при ухудшении видимости до 1 км и менее - туман. В сухую погоду видимость может ухудшаться дымом, пылью или мглою.
Явления - указаны атмосферные явления, наблюдавшиеся в срок или в последний час перед сроком; фигурными скобками обозначены явления, наблюдавшиеся между сроками (за 1-3 часа до срока); квадратными скобками обозначены град или гололедные отложения с указанием их диаметра в мм.
Облачность - указаны через наклонную черту общая и нижняя облачность в баллах и высота нижней границы облаков в метрах; квадратными скобками обозначены формы облаков: Ci - перистые, Cs - перисто-слоистые, Cc - перисто-кучевые, Ac - высококучевые, As - высокослоистые, Sc - слоисто-кучевые, Ns - слоисто-дождевые, Cu - кучевые, Cb - кучево-дождевые. Подробнее классификацию облаков см. в Атласе облаков (PDF).
T - Температура воздуха - температура, измеренная на высоте 2 м над землей.
Td - Температура точки росы - температура, при понижении до которой содержащийся в воздухе водяной пар достигнет насыщения.
f - Относительная влажность воздуха - влажноcть воздуха, измеренная на высоте 2 м над землей.
Te - Эффективная температура - температура, которую ощущает одетый по сезону человек в тени. Характеристика душности погоды. При расчете учитывается влияние влажности воздуха и скорости ветра на теплоощущения человека.
Tes - Эффективная температура на солнце - температура, которую ощущает человек, с поправкой на солнечный нагрев. Характеристика знойности погоды. Зависит от высоты солнца над горизонтом, облачности и скорости ветра. Ночью, в пасмурную погоду, а также при ветре 12 м/с и более поправка равна нулю.
P - Атмосферное давление - приведенное к уровню моря атмосферное давление.
Po - Атмосферное давление - измеренное на уровне метеостанции атмосферное давление.
Tmin - Минимальная температура - минимум температуры воздуха на высоте 2 м над землей.
Tmax - Максимальная температура - максимум температуры воздуха на высоте 2 м над землей.
R - Количество осадков - Количество выпавших осадков за период времени, мм. При наведении курсора мыши на число - период времени, за который выпало указанное количество осадков.
R24 - Количество осадков - Количество выпавших осадков за 24 часа, мм.
S - Снежный покров - Высота снежного покрова, см. При наведении курсора мыши на число - состояние снежного покрова и степень покрытия местности в баллах.